,,,PA_Meas_PMT16A,,PR_Meas_QMR101_102,,RH_Meas_QMH101,,SR_Meas_QMS101,,TA_Meas_QMH101,,GenWind,,GenWind,
date,time,status,PA,status,PR,status,RH,status,SR,status,TA,status,DirAvg,status,SpdAvg,
2009-08-03, 00:00:04,VALID,1004.69,VALID,0,VALID,84.8942,VALID,0,VALID,26.4297,VALID,325,VALID,0.379297,
2009-08-03, 00:01:04,VALID,1004.69,VALID,0,VALID,84.6119,VALID,0,VALID,26.4277,VALID,360,VALID,0.660547,
2009-08-03, 00:02:04,VALID,1004.66,VALID,0,VALID,84.5814,VALID,0,VALID,26.4277,VALID,356,VALID,0.071875,
2009-08-03, 00:03:04,VALID,1004.64,VALID,0,VALID,84.4899,VALID,0,VALID,26.4277,VALID,351,VALID,0.768359,
2009-08-03, 00:04:04,VALID,1004.65,VALID,0,VALID,84.3373,VALID,0,VALID,26.4277,VALID,350,VALID,0.382813,
2009-08-03, 00:05:04,VALID,1004.64,VALID,0,VALID,84.4441,VALID,0,VALID,26.4687,VALID,348,VALID,0.110156,
2009-08-03, 00:06:04,VALID,1004.65,VALID,0,VALID,84.6577,VALID,0,VALID,26.4472,VALID,346,VALID,0.639453,
2009-08-03, 00:07:04,VALID,1004.62,VALID,0,VALID,84.6424,VALID,0,VALID,26.4277,VALID,351,VALID,0.548437,
2009-08-03, 00:08:04,VALID,1004.63,VALID,0,VALID,84.7111,VALID,0,VALID,26.4082,VALID,351,VALID,0.475391,
2009-08-03, 00:09:04,VALID,1004.59,VALID,0,VALID,84.5204,VALID,0,VALID,26.4102,VALID,350,VALID,0.428125,
2009-08-03, 00:10:04,VALID,1004.56,VALID,0,VALID,84.6348,VALID,0,VALID,26.4102,VALID,350,VALID,0.342578,
2009-08-03, 00:11:04,VALID,1004.54,VALID,0,VALID,84.734,VALID,0,VALID,26.3907,VALID,350,VALID,0.015625,
2009-08-03, 00:12:04,VALID,1004.54,VALID,0,VALID,85.0468,VALID,0,VALID,26.3693,VALID,350,VALID,0.351563,
2009-08-03, 00:13:04,VALID,1004.53,VALID,0,VALID,85.2451,VALID,0,VALID,26.3518,VALID,350,VALID,0.284375,
2009-08-03, 00:14:04,VALID,1004.53,VALID,0,VALID,85.5045,VALID,0,VALID,26.3323,VALID,350,VALID,0.302344,
2009-08-03, 00:15:04,VALID,1004.55,VALID,0,VALID,85.7715,VALID,0,VALID,26.2933,VALID,350,VALID,0.320703,
2009-08-03, 00:16:04,VALID,1004.58,VALID,0,VALID,85.8936,VALID,0,VALID,26.2739,VALID,352,VALID,0.4,
2009-08-03, 00:17:04,VALID,1004.57,VALID,0,VALID,86.2445,VALID,0,VALID,26.2134,VALID,358,VALID,0.31875,
2009-08-03, 00:18:04,VALID,1004.6,VALID,0,VALID,86.5115,VALID,0,VALID,26.155,VALID,358,VALID,0.435937,
2009-08-03, 00:19:04,VALID,1004.57,VALID,0,VALID,86.9616,VALID,0,VALID,26.1375,VALID,358,VALID,0.221094,
2009-08-03, 00:20:04,VALID,1004.56,VALID,0,VALID,87.1905,VALID,0,VALID,26.0596,VALID,358,VALID,0.151953,
2009-08-03, 00:21:04,VALID,1004.56,VALID,0,VALID,87.4575,VALID,0,VALID,25.9992,VALID,358,VALID,0.305469,
2009-08-03, 00:22:04,VALID,1004.59,VALID,0,VALID,87.5948,VALID,0,VALID,25.9817,VALID,358,VALID,0.465234,
2009-08-03, 00:23:04,VALID,1004.57,VALID,0,VALID,87.5872,VALID,0,VALID,25.9232,VALID,358,VALID,0.479688,
2009-08-03, 00:24:04,VALID,1004.58,VALID,0,VALID,87.961,VALID,0,VALID,25.9232,VALID,358,VALID,0.405469,
2009-08-03, 00:25:04,VALID,1004.58,VALID,0,VALID,87.9915,VALID,0,VALID,25.9038,VALID,358,VALID,0.299219,
2009-08-03, 00:26:04,VALID,1004.55,VALID,0,VALID,87.9991,VALID,0,VALID,25.8843,VALID,358,VALID,0.402344,
2009-08-03, 00:27:04,VALID,1004.55,VALID,0,VALID,88.2585,VALID,0,VALID,25.8434,VALID,358,VALID,0.2,
2009-08-03, 00:28:04,VALID,1004.52,VALID,0,VALID,88.4264,VALID,0,VALID,25.8239,VALID,358,VALID,0.196094,
2009-08-03, 00:29:04,VALID,1004.52,VALID,0,VALID,88.1899,VALID,0,VALID,25.8259,VALID,358,VALID,0.307813,
2009-08-03, 00:30:04,VALID,1004.52,VALID,0,VALID,88.2585,VALID,0,VALID,25.8259,VALID,358,VALID,0.252734,
2009-08-03, 00:31:04,VALID,1004.5,VALID,0,VALID,88.4569,VALID,0,VALID,25.8044,VALID,358,VALID,0.251563,
2009-08-03, 00:32:04,VALID,1004.48,VALID,0,VALID,88.6323,VALID,0,VALID,25.8044,VALID,358,VALID,0.392969,
2009-08-03, 00:33:04,VALID,1004.48,VALID,0,VALID,88.7773,VALID,0,VALID,25.8064,VALID,358,VALID,0.354688,
2009-08-03, 00:34:04,VALID,1004.45,VALID,0,VALID,88.8231,VALID,0,VALID,25.785,VALID,358,VALID,0.282813,
2009-08-03, 00:35:04,VALID,1004.44,VALID,0,VALID,88.9527,VALID,0,VALID,25.7655,VALID,358,VALID,0.290234,
2009-08-03, 00:36:04,VALID,1004.43,VALID,0,VALID,89.1511,VALID,0,VALID,25.7869,VALID,358,VALID,0.321484,
2009-08-03, 00:37:04,VALID,1004.39,VALID,0,VALID,89.0595,VALID,0,VALID,25.746,VALID,358,VALID,0.328125,
2009-08-03, 00:38:04,VALID,1004.36,VALID,0,VALID,89.0138,VALID,0,VALID,25.748,VALID,358,VALID,0.333984,
2009-08-03, 00:39:04,VALID,1004.31,VALID,0,VALID,88.9527,VALID,0,VALID,25.7285,VALID,357,VALID,0.467578,
2009-08-03, 00:40:04,VALID,1004.31,VALID,0,VALID,88.6857,VALID,0.100563,VALID,25.7285,VALID,357,VALID,0.401172,
2009-08-03, 00:41:04,VALID,1004.29,VALID,0,VALID,88.5789,VALID,0,VALID,25.746,VALID,357,VALID,0.0625,
2009-08-03, 00:42:04,VALID,1004.25,VALID,0,VALID,88.4721,VALID,0,VALID,25.7869,VALID,357,VALID,0.425781,
2009-08-03, 00:43:04,VALID,1004.24,VALID,0,VALID,88.4187,VALID,0,VALID,25.8259,VALID,357,VALID,0.528125,
2009-08-03, 00:44:04,VALID,1004.18,VALID,0,VALID,88.0754,VALID,0,VALID,25.8453,VALID,349,VALID,0.437109,
2009-08-03, 00:45:04,VALID,1004.13,VALID,0,VALID,88.0296,VALID,0,VALID,25.8843,VALID,351,VALID,0.419922,
2009-08-03, 00:46:04,VALID,1004.11,VALID,0,VALID,87.9457,VALID,0,VALID,25.8629,VALID,351,VALID,0.283203,
2009-08-03, 00:47:04,VALID,1004.09,VALID,0,VALID,87.8847,VALID,0,VALID,25.9057,VALID,351,VALID,0.289844,
2009-08-03, 00:48:04,VALID,1004.08,VALID,0,VALID,87.9991,VALID,0,VALID,25.9038,VALID,351,VALID,0.196484,
2009-08-03, 00:49:04,VALID,1004.06,VALID,0,VALID,88.2661,VALID,0,VALID,25.9038,VALID,351,VALID,0.00195313,
2009-08-03, 00:50:04,VALID,1004.05,VALID,0,VALID,88.5789,VALID,0,VALID,25.8648,VALID,351,VALID,0.000390625,
2009-08-03, 00:51:04,VALID,1004.01,VALID,0,VALID,88.7773,VALID,0,VALID,25.783,VALID,351,VALID,0.0164062,
2009-08-03, 00:52:04,VALID,1004.01,VALID,0,VALID,88.8154,VALID,0.100563,VALID,25.7655,VALID,351,VALID,0,
2009-08-03, 00:53:04,VALID,1003.98,VALID,0,VALID,88.9527,VALID,0.100563,VALID,25.748,VALID,351,VALID,0.204297,
2009-08-03, 00:54:04,VALID,1003.93,VALID,0,VALID,89.0519,VALID,0,VALID,25.7285,VALID,351,VALID,0.273047,
2009-08-03, 00:55:04,VALID,1003.9,VALID,0,VALID,88.9909,VALID,0,VALID,25.709,VALID,351,VALID,0,
2009-08-03, 00:56:04,VALID,1003.88,VALID,0,VALID,88.8536,VALID,0,VALID,25.709,VALID,351,VALID,0.230469,
2009-08-03, 00:57:04,VALID,1003.86,VALID,0,VALID,88.7468,VALID,0,VALID,25.7285,VALID,351,VALID,0,
2009-08-03, 00:58:04,VALID,1003.83,VALID,0,VALID,88.64,VALID,0,VALID,25.748,VALID,351,VALID,0.392188,
2009-08-03, 00:59:04,VALID,1003.81,VALID,0,VALID,88.6094,VALID,0,VALID,25.7265,VALID,351,VALID,0.384766,
2009-08-03, 01:00:04,VALID,1003.79,VALID,0,VALID,88.5789,VALID,0,VALID,25.7869,VALID,351,VALID,0.548437,
2009-08-03, 01:01:04,VALID,1003.76,VALID,0,VALID,88.3958,VALID,0,VALID,25.8064,VALID,343,VALID,0.481641,
2009-08-03, 01:02:04,VALID,1003.78,VALID,0,VALID,88.2509,VALID,0,VALID,25.8259,VALID,343,VALID,0.473437,
2009-08-03, 01:03:04,VALID,1003.78,VALID,0,VALID,88.0296,VALID,0,VALID,25.8239,VALID,343,VALID,0.448438,
2009-08-03, 01:04:04,VALID,1003.79,VALID,0,VALID,88.1899,VALID,0,VALID,25.8648,VALID,343,VALID,0.371875,
2009-08-03, 01:05:04,VALID,1003.78,VALID,0,VALID,88.0678,VALID,0,VALID,25.8239,VALID,343,VALID,0.360938,
2009-08-03, 01:06:04,VALID,1003.77,VALID,0,VALID,88.1212,VALID,0,VALID,25.8239,VALID,343,VALID,0.248437,
2009-08-03, 01:07:04,VALID,1003.77,VALID,0,VALID,88.0907,VALID,0,VALID,25.8044,VALID,343,VALID,0,
2009-08-03, 01:08:04,VALID,1003.76,VALID,0,VALID,88.0907,VALID,0,VALID,25.8239,VALID,343,VALID,0.103906,
2009-08-03, 01:09:04,VALID,1003.77,VALID,0,VALID,88.3577,VALID,0,VALID,25.8648,VALID,343,VALID,0.237891,
2009-08-03, 01:10:04,VALID,1003.77,VALID,0,VALID,88.556,VALID,0,VALID,25.8453,VALID,343,VALID,0.332422,
2009-08-03, 01:11:04,VALID,1003.81,VALID,0,VALID,88.8231,VALID,0,VALID,25.8064,VALID,343,VALID,0.0664063,
2009-08-03, 01:12:04,VALID,1003.81,VALID,0,VALID,88.9985,VALID,0,VALID,25.7674,VALID,343,VALID,0.273047,
2009-08-03, 01:13:04,VALID,1003.87,VALID,0,VALID,89.0595,VALID,0,VALID,25.709,VALID,343,VALID,0.528125,
2009-08-03, 01:14:04,VALID,1003.86,VALID,0,VALID,89.3571,VALID,0,VALID,25.6486,VALID,343,VALID,0.375,
2009-08-03, 01:15:04,VALID,1003.86,VALID,0,VALID,89.5554,VALID,0,VALID,25.6116,VALID,343,VALID,0.33125,
2009-08-03, 01:16:04,VALID,1003.92,VALID,0,VALID,89.7843,VALID,0,VALID,25.5532,VALID,343,VALID,0.232812,
2009-08-03, 01:17:04,VALID,1003.9,VALID,0,VALID,90.0132,VALID,0,VALID,25.5123,VALID,343,VALID,0.173438,
2009-08-03, 01:18:04,VALID,1003.9,VALID,0,VALID,90.2954,VALID,0,VALID,25.4714,VALID,343,VALID,0,
2009-08-03, 01:19:04,VALID,1003.87,VALID,0,VALID,90.3641,VALID,0,VALID,25.4948,VALID,343,VALID,0,
2009-08-03, 01:20:04,VALID,1003.89,VALID,0,VALID,90.4404,VALID,0,VALID,25.4948,VALID,343,VALID,0,
2009-08-03, 01:21:04,VALID,1003.88,VALID,0,VALID,90.5472,VALID,0.100563,VALID,25.4734,VALID,343,VALID,0,
2009-08-03, 01:22:04,VALID,1003.89,VALID,0,VALID,90.7074,VALID,0,VALID,25.4734,VALID,343,VALID,0,
2009-08-03, 01:23:04,VALID,1003.89,VALID,0,VALID,90.7684,VALID,0,VALID,25.5142,VALID,343,VALID,0,
2009-08-03, 01:24:04,VALID,1003.89,VALID,0,VALID,90.8523,VALID,0,VALID,25.4948,VALID,343,VALID,0,
2009-08-03, 01:25:04,VALID,1003.9,VALID,0,VALID,90.9286,VALID,0,VALID,25.4928,VALID,343,VALID,0,
2009-08-03, 01:26:04,VALID,1003.91,VALID,0,VALID,90.9897,VALID,0,VALID,25.5142,VALID,343,VALID,0,
2009-08-03, 01:27:04,VALID,1003.89,VALID,0,VALID,91.2643,VALID,0,VALID,25.5142,VALID,343,VALID,0,
2009-08-03, 01:28:04,VALID,1003.84,VALID,0,VALID,91.4474,VALID,0,VALID,25.5123,VALID,343,VALID,0,
2009-08-03, 01:29:04,VALID,1003.85,VALID,0,VALID,91.4398,VALID,0.100563,VALID,25.5123,VALID,343,VALID,0,
2009-08-03, 01:30:04,VALID,1003.8,VALID,0,VALID,91.0965,VALID,0,VALID,25.4734,VALID,343,VALID,0,
2009-08-03, 01:31:04,VALID,1003.75,VALID,0,VALID,90.8218,VALID,0.100563,VALID,25.4928,VALID,343,VALID,0,
2009-08-03, 01:32:04,VALID,1003.71,VALID,0,VALID,90.715,VALID,0,VALID,25.4928,VALID,343,VALID,0,
2009-08-03, 01:33:04,VALID,1003.66,VALID,0,VALID,90.6921,VALID,0,VALID,25.4928,VALID,343,VALID,0,
2009-08-03, 01:34:04,VALID,1003.61,VALID,0,VALID,90.7379,VALID,0,VALID,25.5142,VALID,343,VALID,0,
2009-08-03, 01:35:04,VALID,1003.58,VALID,0,VALID,90.7303,VALID,0,VALID,25.4734,VALID,343,VALID,0,
2009-08-03, 01:36:04,VALID,1003.56,VALID,0,VALID,90.9057,VALID,0,VALID,25.4734,VALID,343,VALID,0,
2009-08-03, 01:37:04,VALID,1003.51,VALID,0,VALID,90.8066,VALID,0,VALID,25.4734,VALID,343,VALID,0,
2009-08-03, 01:38:04,VALID,1003.51,VALID,0,VALID,90.7989,VALID,0,VALID,25.4539,VALID,343,VALID,0.419141,
2009-08-03, 01:39:04,VALID,1003.46,VALID,0,VALID,90.7913,VALID,0,VALID,25.4344,VALID,343,VALID,0.514063,
2009-08-03, 01:40:04,VALID,1003.5,VALID,0,VALID,90.8829,VALID,0.100563,VALID,25.4149,VALID,343,VALID,0.413672,
2009-08-03, 01:41:04,VALID,1003.48,VALID,0,VALID,91.0049,VALID,0.100563,VALID,25.3955,VALID,343,VALID,0.257813,
2009-08-03, 01:42:04,VALID,1003.46,VALID,0,VALID,91.0736,VALID,0,VALID,25.376,VALID,343,VALID,0.160156,
2009-08-03, 01:43:04,VALID,1003.47,VALID,0,VALID,91.1728,VALID,0,VALID,25.3565,VALID,343,VALID,0,
2009-08-03, 01:44:04,VALID,1003.47,VALID,0,VALID,91.1956,VALID,0,VALID,25.3584,VALID,343,VALID,0,
2009-08-03, 01:45:04,VALID,1003.44,VALID,0,VALID,91.2872,VALID,0,VALID,25.337,VALID,343,VALID,0,
2009-08-03, 01:46:04,VALID,1003.44,VALID,0,VALID,91.3406,VALID,0,VALID,25.339,VALID,343,VALID,0,
2009-08-03, 01:47:04,VALID,1003.45,VALID,0,VALID,91.4626,VALID,0,VALID,25.3584,VALID,343,VALID,0,
2009-08-03, 01:48:04,VALID,1003.42,VALID,0,VALID,91.4932,VALID,0,VALID,25.339,VALID,343,VALID,0,
2009-08-03, 01:49:04,VALID,1003.4,VALID,0,VALID,91.4932,VALID,0,VALID,25.339,VALID,343,VALID,0,
2009-08-03, 01:50:04,VALID,1003.41,VALID,0,VALID,91.5313,VALID,0,VALID,25.3176,VALID,343,VALID,0,
2009-08-03, 01:51:04,VALID,1003.41,VALID,0,VALID,91.5618,VALID,0,VALID,25.339,VALID,343,VALID,0,
2009-08-03, 01:52:04,VALID,1003.38,VALID,0,VALID,91.6,VALID,0,VALID,25.3195,VALID,343,VALID,0,
2009-08-03, 01:53:04,VALID,1003.38,VALID,0,VALID,91.6152,VALID,0.100563,VALID,25.3195,VALID,343,VALID,0,
2009-08-03, 01:54:04,VALID,1003.35,VALID,0,VALID,91.6457,VALID,0,VALID,25.3195,VALID,343,VALID,0,
2009-08-03, 01:55:04,VALID,1003.34,VALID,0,VALID,91.6381,VALID,0,VALID,25.3,VALID,343,VALID,0.0582031,
2009-08-03, 01:56:04,VALID,1003.33,VALID,0,VALID,91.6076,VALID,0,VALID,25.2786,VALID,343,VALID,0.190625,
2009-08-03, 01:57:04,VALID,1003.33,VALID,0,VALID,91.722,VALID,0,VALID,25.3195,VALID,343,VALID,0.0878906,
2009-08-03, 01:58:04,VALID,1003.33,VALID,0,VALID,91.7525,VALID,0,VALID,25.2981,VALID,343,VALID,0.273047,
2009-08-03, 01:59:04,VALID,1003.32,VALID,0,VALID,91.722,VALID,0,VALID,25.3195,VALID,343,VALID,0.398047,
2009-08-03, 02:00:04,VALID,1003.35,VALID,0,VALID,91.7297,VALID,0,VALID,25.3,VALID,343,VALID,0.275391,
2009-08-03, 02:01:04,VALID,1003.35,VALID,0,VALID,91.722,VALID,0,VALID,25.3,VALID,9,VALID,0.443359,
2009-08-03, 02:02:04,VALID,1003.36,VALID,0,VALID,91.7144,VALID,0,VALID,25.2611,VALID,42,VALID,0.55625,
2009-08-03, 02:03:04,VALID,1003.32,VALID,0,VALID,91.6991,VALID,0,VALID,25.2806,VALID,58,VALID,0.490625,
2009-08-03, 02:04:04,VALID,1003.3,VALID,0,VALID,91.6457,VALID,0,VALID,25.2592,VALID,58,VALID,0.285937,
2009-08-03, 02:05:04,VALID,1003.3,VALID,0,VALID,91.6915,VALID,0,VALID,25.2806,VALID,58,VALID,0.250781,
2009-08-03, 02:06:04,VALID,1003.29,VALID,0,VALID,91.7449,VALID,0.100563,VALID,25.2806,VALID,58,VALID,0.345313,
2009-08-03, 02:07:04,VALID,1003.31,VALID,0,VALID,91.7754,VALID,0.100563,VALID,25.2806,VALID,58,VALID,0.205469,
2009-08-03, 02:08:04,VALID,1003.33,VALID,0,VALID,91.7983,VALID,0,VALID,25.2592,VALID,58,VALID,0.2,
2009-08-03, 02:09:04,VALID,1003.29,VALID,0,VALID,91.867,VALID,0,VALID,25.2592,VALID,58,VALID,0.233203,
2009-08-03, 02:10:04,VALID,1003.34,VALID,0,VALID,91.8059,VALID,0,VALID,25.2611,VALID,87,VALID,0.647656,
2009-08-03, 02:11:04,VALID,1003.34,VALID,0,VALID,91.7602,VALID,0.100563,VALID,25.2592,VALID,87,VALID,0.452344,
2009-08-03, 02:12:04,VALID,1003.32,VALID,0,VALID,91.7144,VALID,0,VALID,25.2397,VALID,87,VALID,0.38125,
2009-08-03, 02:13:04,VALID,1003.32,VALID,0,VALID,91.6229,VALID,0,VALID,25.2397,VALID,87,VALID,0.497656,
2009-08-03, 02:14:04,VALID,1003.29,VALID,0,VALID,91.6152,VALID,0,VALID,25.2611,VALID,87,VALID,0.384375,
2009-08-03, 02:15:04,VALID,1003.29,VALID,0,VALID,91.6457,VALID,0,VALID,25.2592,VALID,87,VALID,0.0140625,
2009-08-03, 02:16:04,VALID,1003.28,VALID,0,VALID,91.7297,VALID,0,VALID,25.2806,VALID,87,VALID,0.0847656,
2009-08-03, 02:17:04,VALID,1003.25,VALID,0,VALID,91.7831,VALID,0,VALID,25.2806,VALID,87,VALID,0.00976563,
2009-08-03, 02:18:04,VALID,1003.26,VALID,0,VALID,91.8288,VALID,0,VALID,25.2806,VALID,87,VALID,0.294922,
2009-08-03, 02:19:04,VALID,1003.28,VALID,0,VALID,91.7602,VALID,0,VALID,25.2592,VALID,87,VALID,0.379687,
2009-08-03, 02:20:04,VALID,1003.29,VALID,0,VALID,91.8288,VALID,0.100563,VALID,25.3,VALID,87,VALID,0.335156,
2009-08-03, 02:21:04,VALID,1003.33,VALID,0,VALID,91.6305,VALID,0,VALID,25.339,VALID,93,VALID,0.690234,
2009-08-03, 02:22:04,VALID,1003.37,VALID,0,VALID,91.5161,VALID,0,VALID,25.4363,VALID,131,VALID,1.40977,
2009-08-03, 02:23:04,VALID,1003.31,VALID,0,VALID,89.8072,VALID,0,VALID,25.5532,VALID,158,VALID,2.04688,
2009-08-03, 02:24:04,VALID,1003.35,VALID,0,VALID,88.8307,VALID,0,VALID,25.7285,VALID,124,VALID,3.01563,
2009-08-03, 02:25:04,VALID,1003.35,VALID,0,VALID,87.8618,VALID,0,VALID,25.9038,VALID,89,VALID,2.10273,
2009-08-03, 02:26:04,VALID,1003.34,VALID,0,VALID,87.3507,VALID,0,VALID,25.9817,VALID,100,VALID,1.70977,
2009-08-03, 02:27:04,VALID,1003.32,VALID,0,VALID,87.0379,VALID,0,VALID,26.0206,VALID,81,VALID,1.38398,
2009-08-03, 02:28:04,VALID,1003.33,VALID,0,VALID,86.687,VALID,0,VALID,26.0187,VALID,81,VALID,1.85156,
2009-08-03, 02:29:04,VALID,1003.32,VALID,0,VALID,85.7868,VALID,0,VALID,26.0985,VALID,86,VALID,2.18086,
2009-08-03, 02:30:04,VALID,1003.32,VALID,0,VALID,85.2375,VALID,0,VALID,26.116,VALID,76,VALID,1.23086,
2009-08-03, 02:31:04,VALID,1003.32,VALID,0,VALID,85.1536,VALID,0,VALID,26.157,VALID,84,VALID,0.982422,
2009-08-03, 02:32:04,VALID,1003.28,VALID,0,VALID,84.7263,VALID,0,VALID,26.157,VALID,94,VALID,1.14688,
2009-08-03, 02:33:04,VALID,1003.26,VALID,0,VALID,84.1008,VALID,0,VALID,26.1959,VALID,109,VALID,1.82734,
2009-08-03, 02:34:04,VALID,1003.23,VALID,0,VALID,83.9101,VALID,0,VALID,26.1959,VALID,102,VALID,1.25352,
2009-08-03, 02:35:04,VALID,1003.19,VALID,0,VALID,83.7117,VALID,0,VALID,26.1959,VALID,89,VALID,0.7875,
2009-08-03, 02:36:04,VALID,1003.18,VALID,0,VALID,83.788,VALID,0,VALID,26.1959,VALID,99,VALID,0.716406,
2009-08-03, 02:37:04,VALID,1003.16,VALID,0,VALID,83.7956,VALID,0,VALID,26.157,VALID,78,VALID,1.36289,
2009-08-03, 02:38:04,VALID,1003.21,VALID,0,VALID,83.8185,VALID,0,VALID,26.157,VALID,98,VALID,0.849609,
2009-08-03, 02:39:04,VALID,1003.23,VALID,0,VALID,83.6736,VALID,0,VALID,26.118,VALID,113,VALID,1.17461,
2009-08-03, 02:40:04,VALID,1003.23,VALID,0,VALID,84.0016,VALID,0,VALID,26.118,VALID,106,VALID,0.717578,
2009-08-03, 02:41:04,VALID,1003.26,VALID,0,VALID,83.6659,VALID,0,VALID,26.0791,VALID,93,VALID,1.04062,
2009-08-03, 02:42:04,VALID,1003.21,VALID,0,VALID,83.1167,VALID,0,VALID,26.0596,VALID,98,VALID,1.98359,
2009-08-03, 02:43:04,VALID,1003.18,VALID,0,VALID,82.7199,VALID,0,VALID,26.0791,VALID,102,VALID,1.71875,
2009-08-03, 02:44:04,VALID,1003.21,VALID,0,VALID,82.9564,VALID,0,VALID,26.0791,VALID,50,VALID,1.04844,
2009-08-03, 02:45:04,VALID,1003.19,VALID,0,VALID,83.2158,VALID,0,VALID,26.0187,VALID,116,VALID,0.864062,
2009-08-03, 02:46:04,VALID,1003.21,VALID,0,VALID,82.7123,VALID,0,VALID,26.0206,VALID,125,VALID,1.5125,
2009-08-03, 02:47:04,VALID,1003.22,VALID,0,VALID,82.5597,VALID,0,VALID,26.0401,VALID,91,VALID,0.898047,
2009-08-03, 02:48:04,VALID,1003.25,VALID,0,VALID,82.575,VALID,0,VALID,26.0401,VALID,84,VALID,0.708594,
2009-08-03, 02:49:04,VALID,1003.24,VALID,0,VALID,82.6131,VALID,0,VALID,26.0012,VALID,80,VALID,0.953516,
2009-08-03, 02:50:04,VALID,1003.25,VALID,0,VALID,82.8268,VALID,0,VALID,25.9817,VALID,74,VALID,0.836719,
2009-08-03, 02:51:04,VALID,1003.27,VALID,0,VALID,82.7581,VALID,0,VALID,25.9622,VALID,73,VALID,1.12422,
2009-08-03, 02:52:04,VALID,1003.26,VALID,0,VALID,83.1014,VALID,0,VALID,25.9232,VALID,71,VALID,0.685938,
2009-08-03, 02:53:04,VALID,1003.25,VALID,0,VALID,83.0175,VALID,0,VALID,25.8843,VALID,76,VALID,1.04805,
2009-08-03, 02:54:04,VALID,1003.27,VALID,0,VALID,83.1777,VALID,0.100563,VALID,25.8434,VALID,86,VALID,0.572266,
2009-08-03, 02:55:04,VALID,1003.25,VALID,0,VALID,83.2845,VALID,0,VALID,25.8648,VALID,93,VALID,0.571875,
2009-08-03, 02:56:04,VALID,1003.23,VALID,0,VALID,83.7651,VALID,0,VALID,25.8064,VALID,33,VALID,0.792969,
2009-08-03, 02:57:04,VALID,1003.21,VALID,0,VALID,83.46,VALID,0,VALID,25.746,VALID,16,VALID,1.26406,
2009-08-03, 02:58:04,VALID,1003.19,VALID,0,VALID,83.5668,VALID,0,VALID,25.7674,VALID,33,VALID,0.933203,
2009-08-03, 02:59:04,VALID,1003.18,VALID,0,VALID,83.9558,VALID,0,VALID,25.7674,VALID,36,VALID,0.4375,
2009-08-03, 03:00:04,VALID,1003.17,VALID,0,VALID,83.6354,VALID,0,VALID,25.748,VALID,42,VALID,0.740234,
2009-08-03, 03:01:04,VALID,1003.17,VALID,0,VALID,82.9641,VALID,0,VALID,25.748,VALID,41,VALID,1.40313,
2009-08-03, 03:02:04,VALID,1003.18,VALID,0,VALID,82.9336,VALID,0,VALID,25.7655,VALID,68,VALID,0.683203,
2009-08-03, 03:03:04,VALID,1003.16,VALID,0,VALID,83.3531,VALID,0.100563,VALID,25.746,VALID,31,VALID,0.335156,
2009-08-03, 03:04:04,VALID,1003.14,VALID,0,VALID,83.5744,VALID,0,VALID,25.7265,VALID,31,VALID,0.321875,
2009-08-03, 03:05:04,VALID,1003.12,VALID,0,VALID,83.4981,VALID,0,VALID,25.7285,VALID,90,VALID,0.664453,
2009-08-03, 03:06:04,VALID,1003.1,VALID,0,VALID,83.5057,VALID,0,VALID,25.6895,VALID,83,VALID,0.935156,
2009-08-03, 03:07:04,VALID,1003.11,VALID,0,VALID,83.6964,VALID,0,VALID,25.6895,VALID,59,VALID,0.544141,
2009-08-03, 03:08:04,VALID,1003.05,VALID,0,VALID,83.5744,VALID,0.100563,VALID,25.6681,VALID,80,VALID,0.192969,
2009-08-03, 03:09:04,VALID,1003.03,VALID,0,VALID,83.2235,VALID,0.100563,VALID,25.6486,VALID,14,VALID,0.283984,
2009-08-03, 03:10:04,VALID,1003,VALID,0,VALID,83.2845,VALID,0,VALID,25.6895,VALID,30,VALID,0.820313,
2009-08-03, 03:11:04,VALID,1002.94,VALID,0,VALID,83.3837,VALID,0,VALID,25.709,VALID,116,VALID,0.670703,
2009-08-03, 03:12:04,VALID,1002.85,VALID,0,VALID,83.5591,VALID,0.100563,VALID,25.6876,VALID,103,VALID,0.121875,
2009-08-03, 03:13:04,VALID,1002.84,VALID,0,VALID,83.2692,VALID,0,VALID,25.6876,VALID,93,VALID,0.403516,
2009-08-03, 03:14:04,VALID,1002.8,VALID,0,VALID,82.7505,VALID,0.100563,VALID,25.6876,VALID,317,VALID,0.714063,
2009-08-03, 03:15:04,VALID,1002.79,VALID,0,VALID,82.781,VALID,0,VALID,25.6876,VALID,313,VALID,0.496484,
2009-08-03, 03:16:04,VALID,1002.77,VALID,0,VALID,83.109,VALID,0,VALID,25.748,VALID,291,VALID,0.228125,
2009-08-03, 03:17:04,VALID,1002.76,VALID,0,VALID,83.1853,VALID,0,VALID,25.7869,VALID,291,VALID,0.00117188,
2009-08-03, 03:18:04,VALID,1002.78,VALID,0,VALID,83.9787,VALID,0,VALID,25.7674,VALID,201,VALID,0.872656,
2009-08-03, 03:19:04,VALID,1002.78,VALID,0,VALID,84.5433,VALID,0,VALID,25.6681,VALID,164,VALID,1.28984,
2009-08-03, 03:20:04,VALID,1002.79,VALID,0,VALID,84.3296,VALID,0,VALID,25.6116,VALID,155,VALID,1.30391,
2009-08-03, 03:21:04,VALID,1002.81,VALID,0,VALID,84.6806,VALID,0,VALID,25.5707,VALID,156,VALID,0.803516,
2009-08-03, 03:22:04,VALID,1002.8,VALID,0,VALID,84.9476,VALID,0,VALID,25.4928,VALID,142,VALID,0.901172,
2009-08-03, 03:23:04,VALID,1002.78,VALID,0,VALID,85.3901,VALID,0,VALID,25.4948,VALID,142,VALID,0.54375,
2009-08-03, 03:24:04,VALID,1002.77,VALID,0,VALID,85.5121,VALID,0.100563,VALID,25.4344,VALID,142,VALID,0.223828,
2009-08-03, 03:25:04,VALID,1002.73,VALID,0,VALID,85.6876,VALID,0,VALID,25.4149,VALID,142,VALID,0.0867188,
2009-08-03, 03:26:04,VALID,1002.71,VALID,0,VALID,85.6952,VALID,0,VALID,25.4169,VALID,142,VALID,0.01875,
2009-08-03, 03:27:04,VALID,1002.71,VALID,0,VALID,85.5274,VALID,0,VALID,25.376,VALID,142,VALID,0,
2009-08-03, 03:28:04,VALID,1002.74,VALID,0,VALID,85.6189,VALID,0,VALID,25.3565,VALID,142,VALID,0.0375,
2009-08-03, 03:29:04,VALID,1002.74,VALID,0,VALID,85.5579,VALID,0,VALID,25.3565,VALID,142,VALID,0.0109375,
2009-08-03, 03:30:04,VALID,1002.78,VALID,0,VALID,86.1911,VALID,0,VALID,25.337,VALID,142,VALID,0.415625,
2009-08-03, 03:31:04,VALID,1002.78,VALID,0,VALID,86.1301,VALID,0,VALID,25.3176,VALID,142,VALID,0.559766,
2009-08-03, 03:32:04,VALID,1002.79,VALID,0,VALID,86.3437,VALID,0,VALID,25.2786,VALID,117,VALID,0.745703,
2009-08-03, 03:33:04,VALID,1002.78,VALID,0,VALID,86.5954,VALID,0,VALID,25.2611,VALID,87,VALID,0.632813,
2009-08-03, 03:34:04,VALID,1002.82,VALID,0,VALID,86.9769,VALID,0,VALID,25.2221,VALID,84,VALID,0.550391,
2009-08-03, 03:35:04,VALID,1002.8,VALID,0,VALID,86.9998,VALID,0,VALID,25.1442,VALID,102,VALID,0.997266,
2009-08-03, 03:36:04,VALID,1002.82,VALID,0,VALID,87.4804,VALID,0,VALID,25.1034,VALID,105,VALID,0.300781,
2009-08-03, 03:37:04,VALID,1002.77,VALID,0,VALID,87.7779,VALID,0,VALID,25.0858,VALID,105,VALID,0.171094,
2009-08-03, 03:38:04,VALID,1002.76,VALID,0,VALID,87.7245,VALID,0,VALID,25.0469,VALID,105,VALID,0.366016,
2009-08-03, 03:39:04,VALID,1002.76,VALID,0,VALID,87.694,VALID,0,VALID,25.0274,VALID,105,VALID,0.24375,
2009-08-03, 03:40:04,VALID,1002.77,VALID,0,VALID,87.961,VALID,0,VALID,24.9866,VALID,104,VALID,0.390234,
2009-08-03, 03:41:04,VALID,1002.74,VALID,0,VALID,88.1288,VALID,0,VALID,24.9885,VALID,104,VALID,0.292188,
2009-08-03, 03:42:04,VALID,1002.71,VALID,0,VALID,88.4569,VALID,0,VALID,24.9282,VALID,14,VALID,0.50625,
2009-08-03, 03:43:04,VALID,1002.69,VALID,0,VALID,88.6781,VALID,0,VALID,24.9495,VALID,2,VALID,0.339844,
2009-08-03, 03:44:04,VALID,1002.71,VALID,0,VALID,88.6857,VALID,0,VALID,24.93,VALID,2,VALID,0.55,
2009-08-03, 03:45:04,VALID,1002.66,VALID,0,VALID,88.6628,VALID,0,VALID,24.8873,VALID,2,VALID,0.466016,
2009-08-03, 03:46:04,VALID,1002.68,VALID,0,VALID,88.6934,VALID,0.100563,VALID,24.8892,VALID,2,VALID,0.387891,